Time,TemperatureF,DewpointF,PressureIn,WindDirection,WindDirectionDegrees,WindSpeedMPH,WindSpeedGustMPH,Humidity,HourlyPrecipIn,Conditions,Clouds,dailyrainin,SoftwareType,DateUTC
2013-06-08 00:01:00,50.0,49.0,30.02,North,360,0.0,0.0,97,0.06,,,0.00,Rainwise IP-100,2013-06-08 04:01:00,
2013-06-08 00:06:00,50.0,49.0,30.02,North,360,0.0,0.0,97,0.00,,,0.00,Rainwise IP-100,2013-06-08 04:06:00,
2013-06-08 00:11:00,50.0,49.0,30.02,North,360,0.0,0.0,97,0.06,,,0.01,Rainwise IP-100,2013-06-08 04:11:00,
2013-06-08 00:16:00,50.0,49.0,30.02,North,360,2.0,0.0,97,0.06,,,0.01,Rainwise IP-100,2013-06-08 04:16:00,
2013-06-08 00:21:00,50.0,49.0,30.02,North,360,2.0,3.0,97,0.00,,,0.01,Rainwise IP-100,2013-06-08 04:21:00,
2013-06-08 00:26:00,50.0,49.0,30.02,North,360,0.0,3.0,97,0.00,,,0.01,Rainwise IP-100,2013-06-08 04:26:00,
2013-06-08 00:31:00,50.0,49.0,30.02,North,360,4.0,4.0,97,0.06,,,0.02,Rainwise IP-100,2013-06-08 04:31:00,
2013-06-08 00:36:00,50.0,49.0,30.01,North,360,0.0,4.0,97,0.06,,,0.02,Rainwise IP-100,2013-06-08 04:36:00,
2013-06-08 00:41:00,50.0,49.0,30.01,North,360,0.0,0.0,97,0.00,,,0.02,Rainwise IP-100,2013-06-08 04:41:00,
2013-06-08 00:46:00,50.0,49.0,30.01,North,360,0.0,0.0,97,0.06,,,0.03,Rainwise IP-100,2013-06-08 04:46:00,
2013-06-08 00:51:00,50.0,49.0,30.01,North,360,0.0,0.0,97,0.06,,,0.03,Rainwise IP-100,2013-06-08 04:51:00,
2013-06-08 00:56:00,50.0,49.0,30.01,North,360,0.0,0.0,97,0.00,,,0.03,Rainwise IP-100,2013-06-08 04:56:00,
2013-06-08 01:01:00,50.0,49.0,30.00,North,360,0.0,0.0,97,0.06,,,0.04,Rainwise IP-100,2013-06-08 05:01:00,
2013-06-08 01:06:00,50.0,49.0,29.99,North,360,0.0,0.0,97,0.12,,,0.05,Rainwise IP-100,2013-06-08 05:06:00,
2013-06-08 01:11:00,50.0,49.0,29.99,North,360,0.0,0.0,97,0.06,,,0.05,Rainwise IP-100,2013-06-08 05:11:00,
2013-06-08 01:16:00,50.0,49.0,29.99,North,360,0.0,0.0,97,0.06,,,0.06,Rainwise IP-100,2013-06-08 05:16:00,
2013-06-08 01:21:00,50.0,49.0,29.98,North,360,0.0,0.0,97,0.06,,,0.06,Rainwise IP-100,2013-06-08 05:21:00,
2013-06-08 01:26:00,50.0,49.0,29.98,North,360,0.0,0.0,97,0.06,,,0.07,Rainwise IP-100,2013-06-08 05:26:00,
2013-06-08 01:31:00,50.0,49.0,29.98,North,360,0.0,0.0,97,0.06,,,0.07,Rainwise IP-100,2013-06-08 05:31:00,
2013-06-08 01:36:00,50.0,49.0,29.98,North,360,0.0,0.0,97,0.12,,,0.09,Rainwise IP-100,2013-06-08 05:36:00,
2013-06-08 01:41:00,50.0,49.0,29.97,North,360,0.0,0.0,97,0.18,,,0.10,Rainwise IP-100,2013-06-08 05:41:00,
2013-06-08 01:46:00,50.0,49.0,29.97,North,360,0.0,0.0,97,0.12,,,0.11,Rainwise IP-100,2013-06-08 05:46:00,
2013-06-08 01:51:00,50.0,49.0,29.96,North,360,0.0,0.0,97,0.12,,,0.12,Rainwise IP-100,2013-06-08 05:51:00,
2013-06-08 01:56:00,50.0,49.0,29.96,North,360,0.0,0.0,97,0.12,,,0.13,Rainwise IP-100,2013-06-08 05:56:00,
2013-06-08 02:01:00,50.0,49.0,29.96,North,360,0.0,0.0,97,0.06,,,0.13,Rainwise IP-100,2013-06-08 06:01:00,
2013-06-08 02:06:00,50.0,49.0,29.95,North,360,0.0,1.0,97,0.06,,,0.14,Rainwise IP-100,2013-06-08 06:06:00,
2013-06-08 02:11:00,50.0,49.0,29.95,North,360,0.0,0.0,97,0.06,,,0.14,Rainwise IP-100,2013-06-08 06:11:00,
2013-06-08 02:16:00,50.0,49.0,29.95,North,360,0.0,0.0,97,0.00,,,0.14,Rainwise IP-100,2013-06-08 06:16:00,
2013-06-08 02:21:00,50.0,49.0,29.95,North,360,0.0,0.0,97,0.06,,,0.15,Rainwise IP-100,2013-06-08 06:21:00,
2013-06-08 02:26:00,50.0,49.0,29.95,NE,45,1.0,3.0,97,0.06,,,0.15,Rainwise IP-100,2013-06-08 06:26:00,
2013-06-08 02:31:00,50.0,49.0,29.94,NE,45,0.0,2.0,97,0.00,,,0.15,Rainwise IP-100,2013-06-08 06:31:00,
2013-06-08 02:36:00,50.0,49.0,29.94,NE,45,0.0,3.0,97,0.06,,,0.16,Rainwise IP-100,2013-06-08 06:36:00,
2013-06-08 02:41:00,50.0,49.0,29.94,NE,45,0.0,3.0,97,0.06,,,0.16,Rainwise IP-100,2013-06-08 06:41:00,
2013-06-08 02:46:00,50.0,49.0,29.94,NE,45,0.0,3.0,97,0.06,,,0.17,Rainwise IP-100,2013-06-08 06:46:00,
2013-06-08 02:51:00,50.0,49.0,29.94,NE,45,0.0,2.0,97,0.06,,,0.17,Rainwise IP-100,2013-06-08 06:51:00,
2013-06-08 02:56:00,50.0,49.0,29.93,NE,45,0.0,2.0,97,0.06,,,0.18,Rainwise IP-100,2013-06-08 06:56:00,
2013-06-08 03:01:00,50.0,49.0,29.93,NE,45,1.0,2.0,97,0.06,,,0.18,Rainwise IP-100,2013-06-08 07:01:00,
2013-06-08 03:06:00,50.0,49.0,29.93,NE,45,2.0,3.0,97,0.00,,,0.18,Rainwise IP-100,2013-06-08 07:06:00,
2013-06-08 03:11:00,50.0,49.0,29.93,NE,45,0.0,3.0,97,0.00,,,0.18,Rainwise IP-100,2013-06-08 07:11:00,
2013-06-08 03:16:00,50.0,49.0,29.93,NE,45,1.0,3.0,97,0.06,,,0.19,Rainwise IP-100,2013-06-08 07:16:00,
2013-06-08 03:21:00,50.0,49.0,29.93,NE,45,0.0,2.0,97,0.06,,,0.19,Rainwise IP-100,2013-06-08 07:21:00,
2013-06-08 03:26:00,50.0,49.0,29.93,NE,45,0.0,1.0,97,0.00,,,0.19,Rainwise IP-100,2013-06-08 07:26:00,
2013-06-08 03:31:00,50.0,49.0,29.93,NE,45,0.0,0.0,97,0.00,,,0.19,Rainwise IP-100,2013-06-08 07:31:00,
2013-06-08 03:36:00,50.0,49.0,29.93,NE,45,0.0,0.0,97,0.00,,,0.19,Rainwise IP-100,2013-06-08 07:36:00,
2013-06-08 03:41:00,50.0,49.0,29.93,NE,45,0.0,0.0,97,0.00,,,0.19,Rainwise IP-100,2013-06-08 07:41:00,
2013-06-08 03:46:00,50.0,49.0,29.93,NE,45,0.0,0.0,97,0.00,,,0.19,Rainwise IP-100,2013-06-08 07:46:00,
2013-06-08 03:51:00,50.0,49.0,29.92,NE,45,0.0,0.0,97,0.06,,,0.20,Rainwise IP-100,2013-06-08 07:51:00,
2013-06-08 03:56:00,50.0,49.0,29.92,NE,45,0.0,0.0,97,0.06,,,0.20,Rainwise IP-100,2013-06-08 07:56:00,
2013-06-08 04:01:00,50.0,49.0,29.92,NE,45,0.0,0.0,97,0.00,,,0.20,Rainwise IP-100,2013-06-08 08:01:00,
2013-06-08 04:06:00,50.0,49.0,29.92,NE,45,0.0,0.0,97,0.00,,,0.20,Rainwise IP-100,2013-06-08 08:06:00,
2013-06-08 04:11:00,50.0,49.0,29.92,NE,45,0.0,0.0,97,0.06,,,0.21,Rainwise IP-100,2013-06-08 08:11:00,
2013-06-08 04:16:00,50.0,49.0,29.92,NE,45,0.0,0.0,97,0.06,,,0.21,Rainwise IP-100,2013-06-08 08:16:00,
2013-06-08 04:21:00,50.0,49.0,29.92,NE,45,0.0,0.0,97,0.00,,,0.21,Rainwise IP-100,2013-06-08 08:21:00,
2013-06-08 04:26:00,50.0,49.0,29.92,NE,45,0.0,0.0,97,0.06,,,0.22,Rainwise IP-100,2013-06-08 08:26:00,
2013-06-08 04:31:00,50.0,49.0,29.92,NE,45,0.0,0.0,97,0.12,,,0.23,Rainwise IP-100,2013-06-08 08:31:00,
2013-06-08 04:36:00,50.0,49.0,29.92,NE,45,0.0,0.0,97,0.18,,,0.25,Rainwise IP-100,2013-06-08 08:36:00,
2013-06-08 04:41:00,50.0,49.0,29.92,NE,45,0.0,0.0,97,0.12,,,0.25,Rainwise IP-100,2013-06-08 08:41:00,
2013-06-08 04:46:00,50.0,49.0,29.92,NE,45,0.0,0.0,97,0.00,,,0.25,Rainwise IP-100,2013-06-08 08:46:00,
2013-06-08 04:51:00,50.0,49.0,29.92,NE,45,0.0,0.0,97,0.00,,,0.25,Rainwise IP-100,2013-06-08 08:51:00,
2013-06-08 04:56:00,50.0,49.0,29.92,NE,45,0.0,0.0,97,0.00,,,0.25,Rainwise IP-100,2013-06-08 08:56:00,
2013-06-08 05:01:00,50.0,49.0,29.91,NE,45,0.0,0.0,97,0.00,,,0.25,Rainwise IP-100,2013-06-08 09:01:00,
2013-06-08 05:06:00,50.0,49.0,29.91,NE,45,0.0,0.0,97,0.00,,,0.26,Rainwise IP-100,2013-06-08 09:06:00,
2013-06-08 05:11:00,50.0,49.0,29.91,NE,45,0.0,0.0,97,0.06,,,0.26,Rainwise IP-100,2013-06-08 09:11:00,
2013-06-08 05:16:00,50.0,49.0,29.91,NE,45,0.0,0.0,97,0.06,,,0.26,Rainwise IP-100,2013-06-08 09:16:00,
2013-06-08 05:21:00,50.0,49.0,29.91,NE,45,0.0,0.0,97,0.00,,,0.26,Rainwise IP-100,2013-06-08 09:21:00,
2013-06-08 05:26:00,50.0,49.0,29.91,NE,45,0.0,0.0,97,0.06,,,0.27,Rainwise IP-100,2013-06-08 09:26:00,
2013-06-08 05:31:00,50.0,49.0,29.90,NE,45,0.0,0.0,97,0.06,,,0.27,Rainwise IP-100,2013-06-08 09:31:00,
2013-06-08 05:36:00,50.0,49.0,29.90,NE,45,0.0,0.0,97,0.00,,,0.27,Rainwise IP-100,2013-06-08 09:36:00,
2013-06-08 05:41:00,50.0,49.0,29.90,NE,45,1.0,2.0,97,0.06,,,0.28,Rainwise IP-100,2013-06-08 09:41:00,
2013-06-08 05:46:00,50.0,49.0,29.90,NE,45,0.0,2.0,97,0.06,,,0.28,Rainwise IP-100,2013-06-08 09:46:00,
2013-06-08 05:51:00,50.0,49.0,29.91,NE,45,0.0,0.0,97,0.00,,,0.28,Rainwise IP-100,2013-06-08 09:51:00,
2013-06-08 05:56:00,50.0,49.0,29.91,NE,45,0.0,1.0,97,0.00,,,0.28,Rainwise IP-100,2013-06-08 09:56:00,
2013-06-08 06:01:00,50.0,49.0,29.91,NE,45,0.0,2.0,97,0.00,,,0.28,Rainwise IP-100,2013-06-08 10:01:00,
2013-06-08 06:06:00,50.0,49.0,29.91,NE,45,0.0,1.0,97,0.00,,,0.28,Rainwise IP-100,2013-06-08 10:06:00,
2013-06-08 06:11:00,50.0,49.0,29.91,NE,45,0.0,0.0,97,0.06,,,0.29,Rainwise IP-100,2013-06-08 10:11:00,
2013-06-08 06:16:00,51.0,50.5,29.90,NE,45,0.0,0.0,97,0.12,,,0.30,Rainwise IP-100,2013-06-08 10:16:00,
2013-06-08 06:21:00,50.0,49.0,29.90,NE,45,0.0,0.0,97,0.06,,,0.30,Rainwise IP-100,2013-06-08 10:21:00,
2013-06-08 06:26:00,50.0,49.0,29.90,NE,45,0.0,0.0,97,0.00,,,0.30,Rainwise IP-100,2013-06-08 10:26:00,
2013-06-08 06:31:00,51.0,50.5,29.90,NE,45,0.0,0.0,97,0.00,,,0.30,Rainwise IP-100,2013-06-08 10:31:00,
2013-06-08 06:36:00,51.0,50.5,29.90,NE,45,0.0,2.0,97,0.00,,,0.30,Rainwise IP-100,2013-06-08 10:36:00,
2013-06-08 06:41:00,51.0,50.5,29.90,NE,45,1.0,2.0,97,0.00,,,0.30,Rainwise IP-100,2013-06-08 10:41:00,
2013-06-08 06:46:00,51.0,50.5,29.90,NE,45,0.0,2.0,97,0.00,,,0.30,Rainwise IP-100,2013-06-08 10:46:00,
2013-06-08 06:51:00,51.0,50.5,29.90,NE,45,0.0,0.0,97,0.00,,,0.30,Rainwise IP-100,2013-06-08 10:51:00,
2013-06-08 06:56:00,52.0,51.0,29.89,NE,45,2.0,2.0,97,0.06,,,0.31,Rainwise IP-100,2013-06-08 10:56:00,
2013-06-08 07:01:00,51.0,50.5,29.89,NNW,337,3.0,5.0,97,0.06,,,0.31,Rainwise IP-100,2013-06-08 11:01:00,
2013-06-08 07:06:00,51.0,50.5,29.90,North,360,3.0,4.0,97,0.00,,,0.31,Rainwise IP-100,2013-06-08 11:06:00,
2013-06-08 07:11:00,51.0,50.5,29.90,NNW,337,1.0,5.0,97,0.00,,,0.31,Rainwise IP-100,2013-06-08 11:11:00,
2013-06-08 07:16:00,51.0,50.5,29.90,NNW,337,1.0,2.0,97,0.00,,,0.31,Rainwise IP-100,2013-06-08 11:16:00,
2013-06-08 07:21:00,51.0,50.5,29.90,NNW,337,1.0,3.0,97,0.00,,,0.31,Rainwise IP-100,2013-06-08 11:21:00,
2013-06-08 07:26:00,52.0,51.0,29.90,NNW,337,0.0,1.0,97,0.00,,,0.31,Rainwise IP-100,2013-06-08 11:26:00,
2013-06-08 07:31:00,52.0,51.0,29.90,NNW,337,0.0,0.0,97,0.00,,,0.31,Rainwise IP-100,2013-06-08 11:31:00,
2013-06-08 07:36:00,52.0,51.0,29.90,NNW,337,0.0,0.0,97,0.00,,,0.31,Rainwise IP-100,2013-06-08 11:36:00,
2013-06-08 07:41:00,52.0,51.0,29.90,East,90,0.0,0.0,97,0.00,,,0.31,Rainwise IP-100,2013-06-08 11:41:00,
2013-06-08 07:46:00,52.0,51.0,29.90,East,90,0.0,0.0,97,0.00,,,0.31,Rainwise IP-100,2013-06-08 11:46:00,
2013-06-08 07:51:00,53.0,52.0,29.90,East,90,0.0,1.0,97,0.00,,,0.31,Rainwise IP-100,2013-06-08 11:51:00,
2013-06-08 07:56:00,53.0,52.0,29.90,East,90,0.0,1.0,97,0.00,,,0.31,Rainwise IP-100,2013-06-08 11:56:00,
2013-06-08 08:01:00,53.0,52.0,29.90,ENE,67,1.0,2.0,97,0.00,,,0.31,Rainwise IP-100,2013-06-08 12:01:00,
2013-06-08 08:06:00,53.0,52.0,29.90,East,90,2.0,2.0,97,0.00,,,0.31,Rainwise IP-100,2013-06-08 12:06:00,
2013-06-08 08:11:00,53.0,52.0,29.90,East,90,0.0,3.0,97,0.00,,,0.31,Rainwise IP-100,2013-06-08 12:11:00,
2013-06-08 08:16:00,53.0,52.0,29.90,East,90,0.0,2.0,97,0.00,,,0.31,Rainwise IP-100,2013-06-08 12:16:00,
2013-06-08 08:21:00,54.0,53.5,29.89,NE,45,1.0,1.0,97,0.06,,,0.32,Rainwise IP-100,2013-06-08 12:21:00,
2013-06-08 08:26:00,54.0,53.5,29.89,NE,45,0.0,2.0,97,0.06,,,0.32,Rainwise IP-100,2013-06-08 12:26:00,
2013-06-08 08:31:00,55.0,54.5,29.90,NE,45,2.0,2.0,97,0.00,,,0.32,Rainwise IP-100,2013-06-08 12:31:00,
2013-06-08 08:36:00,55.0,54.5,29.90,NE,45,0.0,2.0,97,0.00,,,0.32,Rainwise IP-100,2013-06-08 12:36:00,
2013-06-08 08:41:00,55.0,54.5,29.90,NE,45,1.0,3.0,97,0.00,,,0.32,Rainwise IP-100,2013-06-08 12:41:00,
2013-06-08 08:46:00,55.0,54.5,29.90,NE,45,0.0,2.0,97,0.00,,,0.32,Rainwise IP-100,2013-06-08 12:46:00,
2013-06-08 08:51:00,55.0,54.5,29.90,NE,45,0.0,1.0,97,0.00,,,0.32,Rainwise IP-100,2013-06-08 12:51:00,
2013-06-08 08:56:00,56.0,55.0,29.90,NE,45,0.0,2.0,97,0.00,,,0.32,Rainwise IP-100,2013-06-08 12:56:00,
2013-06-08 09:01:00,56.0,55.0,29.90,NE,45,0.0,2.0,97,0.00,,,0.32,Rainwise IP-100,2013-06-08 13:01:00,
2013-06-08 09:06:00,56.0,55.0,29.90,North,360,3.0,4.0,97,0.00,,,0.32,Rainwise IP-100,2013-06-08 13:06:00,
2013-06-08 09:11:00,56.0,55.0,29.90,NNW,337,1.0,4.0,97,0.00,,,0.32,Rainwise IP-100,2013-06-08 13:11:00,
2013-06-08 09:16:00,56.0,55.0,29.90,NNW,337,0.0,2.0,97,0.00,,,0.32,Rainwise IP-100,2013-06-08 13:16:00,
2013-06-08 09:21:00,56.0,55.0,29.90,ENE,67,0.0,1.0,97,0.00,,,0.32,Rainwise IP-100,2013-06-08 13:21:00,
2013-06-08 09:26:00,56.0,55.0,29.90,North,360,0.0,3.0,97,0.00,,,0.32,Rainwise IP-100,2013-06-08 13:26:00,
2013-06-08 09:31:00,56.0,55.0,29.90,North,360,0.0,0.0,97,0.00,,,0.32,Rainwise IP-100,2013-06-08 13:31:00,
2013-06-08 09:36:00,56.0,55.0,29.90,North,360,0.0,0.0,97,0.00,,,0.32,Rainwise IP-100,2013-06-08 13:36:00,
2013-06-08 09:41:00,56.0,55.0,29.90,NNW,337,3.0,6.0,97,0.00,,,0.32,Rainwise IP-100,2013-06-08 13:41:00,
2013-06-08 09:46:00,57.0,56.5,29.90,NNW,337,0.0,5.0,98,0.00,,,0.32,Rainwise IP-100,2013-06-08 13:46:00,
2013-06-08 09:51:00,56.0,55.0,29.90,NNW,337,1.0,4.0,97,0.00,,,0.32,Rainwise IP-100,2013-06-08 13:51:00,
2013-06-08 09:56:00,56.0,55.0,29.91,East,90,2.0,3.0,97,0.00,,,0.32,Rainwise IP-100,2013-06-08 13:56:00,
2013-06-08 10:01:00,56.0,55.0,29.91,West,270,2.0,6.0,97,0.00,,,0.32,Rainwise IP-100,2013-06-08 14:01:00,
2013-06-08 10:06:00,57.0,56.5,29.91,North,360,3.0,6.0,98,0.00,,,0.32,Rainwise IP-100,2013-06-08 14:06:00,
2013-06-08 10:11:00,57.0,56.5,29.91,NNW,337,7.0,8.0,98,0.00,,,0.32,Rainwise IP-100,2013-06-08 14:11:00,
2013-06-08 10:16:00,57.0,56.5,29.91,NW,315,4.0,7.0,98,0.00,,,0.32,Rainwise IP-100,2013-06-08 14:16:00,
2013-06-08 10:21:00,58.0,57.5,29.90,West,270,2.0,9.0,98,0.00,,,0.32,Rainwise IP-100,2013-06-08 14:21:00,
2013-06-08 10:26:00,58.0,57.5,29.91,North,360,8.0,9.0,98,0.00,,,0.32,Rainwise IP-100,2013-06-08 14:26:00,
2013-06-08 10:31:00,59.0,58.0,29.91,NNW,337,6.0,12.0,97,0.00,,,0.32,Rainwise IP-100,2013-06-08 14:31:00,
2013-06-08 10:36:00,59.0,57.5,29.91,NW,315,2.0,11.0,96,0.00,,,0.32,Rainwise IP-100,2013-06-08 14:36:00,
2013-06-08 10:41:00,59.0,57.0,29.91,North,360,3.0,9.0,94,0.00,,,0.32,Rainwise IP-100,2013-06-08 14:41:00,
2013-06-08 10:46:00,60.0,56.5,29.90,NNW,337,10.0,10.0,88,0.00,,,0.32,Rainwise IP-100,2013-06-08 14:46:00,
2013-06-08 10:51:00,60.0,56.5,29.90,North,360,5.0,10.0,89,0.00,,,0.32,Rainwise IP-100,2013-06-08 14:51:00,
2013-06-08 10:56:00,60.0,57.0,29.91,NNW,337,6.0,8.0,91,0.00,,,0.32,Rainwise IP-100,2013-06-08 14:56:00,
2013-06-08 11:01:00,60.0,56.5,29.91,NNW,337,8.0,11.0,89,0.00,,,0.32,Rainwise IP-100,2013-06-08 15:01:00,
2013-06-08 11:06:00,61.0,57.5,29.92,North,360,8.0,10.0,88,0.00,,,0.32,Rainwise IP-100,2013-06-08 15:06:00,
2013-06-08 11:11:00,60.0,56.5,29.92,NW,315,7.0,11.0,88,0.00,,,0.32,Rainwise IP-100,2013-06-08 15:11:00,
2013-06-08 11:16:00,60.0,57.0,29.92,NW,315,9.0,12.0,90,0.00,,,0.32,Rainwise IP-100,2013-06-08 15:16:00,
2013-06-08 11:21:00,61.0,57.5,29.92,North,360,7.0,10.0,88,0.00,,,0.32,Rainwise IP-100,2013-06-08 15:21:00,
2013-06-08 11:26:00,61.0,57.0,29.92,North,360,6.0,13.0,87,0.00,,,0.32,Rainwise IP-100,2013-06-08 15:26:00,
2013-06-08 11:31:00,60.0,56.5,29.92,NW,315,9.0,13.0,88,0.00,,,0.32,Rainwise IP-100,2013-06-08 15:31:00,
2013-06-08 11:36:00,60.0,56.5,29.93,NW,315,7.0,14.0,89,0.00,,,0.32,Rainwise IP-100,2013-06-08 15:36:00,
2013-06-08 11:41:00,60.0,56.5,29.93,NNW,337,10.0,15.0,88,0.00,,,0.32,Rainwise IP-100,2013-06-08 15:41:00,
2013-06-08 11:46:00,59.0,56.0,29.95,NW,315,12.0,19.0,89,0.00,,,0.32,Rainwise IP-100,2013-06-08 15:46:00,
2013-06-08 11:51:00,59.0,56.5,29.95,NNW,337,4.0,16.0,91,0.00,,,0.32,Rainwise IP-100,2013-06-08 15:51:00,
2013-06-08 11:56:00,59.0,56.5,29.95,NW,315,7.0,10.0,92,0.00,,,0.32,Rainwise IP-100,2013-06-08 15:56:00,
2013-06-08 12:01:00,58.0,56.0,29.96,NNW,337,10.0,13.0,91,0.00,,,0.32,Rainwise IP-100,2013-06-08 16:01:00,
2013-06-08 12:06:00,59.0,56.5,29.96,North,360,4.0,13.0,92,0.00,,,0.32,Rainwise IP-100,2013-06-08 16:06:00,
2013-06-08 12:11:00,59.0,56.5,29.96,North,360,1.0,7.0,92,0.00,,,0.32,Rainwise IP-100,2013-06-08 16:11:00,
2013-06-08 12:16:00,59.0,56.5,29.96,NW,315,4.0,7.0,91,0.00,,,0.32,Rainwise IP-100,2013-06-08 16:16:00,
2013-06-08 12:21:00,58.0,56.5,29.95,East,90,5.0,9.0,93,0.00,,,0.32,Rainwise IP-100,2013-06-08 16:21:00,
2013-06-08 12:26:00,59.0,56.0,29.96,NW,315,7.0,7.0,90,0.00,,,0.32,Rainwise IP-100,2013-06-08 16:26:00,
2013-06-08 12:31:00,58.0,55.0,29.96,NNE,22,7.0,15.0,90,0.00,,,0.32,Rainwise IP-100,2013-06-08 16:31:00,
2013-06-08 12:36:00,58.0,56.0,29.96,NW,315,7.0,17.0,91,0.00,,,0.32,Rainwise IP-100,2013-06-08 16:36:00,
2013-06-08 12:41:00,58.0,56.0,29.96,NW,315,12.0,15.0,92,0.00,,,0.32,Rainwise IP-100,2013-06-08 16:41:00,
2013-06-08 12:46:00,57.0,54.5,29.96,NNW,337,4.0,16.0,92,0.00,,,0.32,Rainwise IP-100,2013-06-08 16:46:00,
2013-06-08 12:51:00,58.0,56.5,29.96,NW,315,5.0,14.0,94,0.00,,,0.32,Rainwise IP-100,2013-06-08 16:51:00,
2013-06-08 12:56:00,58.0,56.0,29.96,NW,315,11.0,13.0,92,0.00,,,0.32,Rainwise IP-100,2013-06-08 16:56:00,
2013-06-08 13:01:00,58.0,56.0,29.96,NNE,22,4.0,12.0,92,0.00,,,0.32,Rainwise IP-100,2013-06-08 17:01:00,
2013-06-08 13:06:00,58.0,56.0,29.96,NNW,337,8.0,13.0,91,0.00,,,0.32,Rainwise IP-100,2013-06-08 17:06:00,
2013-06-08 13:11:00,59.0,56.5,29.95,North,360,5.0,8.0,92,0.00,,,0.32,Rainwise IP-100,2013-06-08 17:11:00,
2013-06-08 13:16:00,59.0,56.0,29.95,North,360,9.0,10.0,90,0.00,,,0.32,Rainwise IP-100,2013-06-08 17:16:00,
2013-06-08 13:21:00,59.0,55.0,29.96,East,90,3.0,11.0,88,0.00,,,0.32,Rainwise IP-100,2013-06-08 17:21:00,
2013-06-08 13:26:00,59.0,56.0,29.96,WNW,292,6.0,9.0,89,0.00,,,0.32,Rainwise IP-100,2013-06-08 17:26:00,
2013-06-08 13:31:00,60.0,56.0,29.96,North,360,9.0,9.0,87,0.00,,,0.32,Rainwise IP-100,2013-06-08 17:31:00,
2013-06-08 13:36:00,60.0,56.5,29.96,NNW,337,4.0,9.0,88,0.00,,,0.32,Rainwise IP-100,2013-06-08 17:36:00,
2013-06-08 13:41:00,59.0,55.0,29.96,North,360,6.0,12.0,88,0.00,,,0.32,Rainwise IP-100,2013-06-08 17:41:00,
2013-06-08 13:46:00,60.0,56.5,29.96,North,360,5.0,7.0,89,0.00,,,0.32,Rainwise IP-100,2013-06-08 17:46:00,
2013-06-08 13:51:00,60.0,56.5,29.96,West,270,2.0,8.0,88,0.00,,,0.32,Rainwise IP-100,2013-06-08 17:51:00,
2013-06-08 13:56:00,60.0,56.0,29.96,NW,315,6.0,9.0,87,0.00,,,0.32,Rainwise IP-100,2013-06-08 17:56:00,
2013-06-08 14:01:00,59.0,56.0,29.98,North,360,7.0,16.0,89,0.00,,,0.32,Rainwise IP-100,2013-06-08 18:01:00,
2013-06-08 14:06:00,59.0,56.0,29.98,NNW,337,5.0,14.0,90,0.00,,,0.32,Rainwise IP-100,2013-06-08 18:06:00,
2013-06-08 14:11:00,59.0,56.0,29.98,North,360,7.0,10.0,90,0.00,,,0.32,Rainwise IP-100,2013-06-08 18:11:00,
2013-06-08 14:16:00,59.0,56.0,29.98,NNW,337,0.0,12.0,90,0.00,,,0.32,Rainwise IP-100,2013-06-08 18:16:00,
2013-06-08 14:21:00,60.0,57.0,29.97,North,360,2.0,5.0,90,0.00,,,0.32,Rainwise IP-100,2013-06-08 18:21:00,
2013-06-08 14:26:00,60.0,56.5,29.97,NW,315,6.0,10.0,89,0.00,,,0.32,Rainwise IP-100,2013-06-08 18:26:00,
2013-06-08 14:31:00,60.0,57.0,29.97,NE,45,5.0,7.0,90,0.00,,,0.32,Rainwise IP-100,2013-06-08 18:31:00,
2013-06-08 14:36:00,60.0,56.5,29.97,North,360,4.0,6.0,88,0.00,,,0.32,Rainwise IP-100,2013-06-08 18:36:00,
2013-06-08 14:41:00,61.0,56.5,29.96,North,360,6.0,10.0,86,0.00,,,0.32,Rainwise IP-100,2013-06-08 18:41:00,
2013-06-08 14:46:00,61.0,56.0,29.96,NNW,337,7.0,13.0,84,0.00,,,0.32,Rainwise IP-100,2013-06-08 18:46:00,
2013-06-08 14:51:00,61.0,56.5,29.97,NW,315,4.0,10.0,85,0.00,,,0.32,Rainwise IP-100,2013-06-08 18:51:00,
2013-06-08 14:56:00,61.0,56.5,29.97,NW,315,4.0,12.0,86,0.00,,,0.32,Rainwise IP-100,2013-06-08 18:56:00,
2013-06-08 15:01:00,61.0,56.0,29.97,NW,315,8.0,12.0,83,0.00,,,0.32,Rainwise IP-100,2013-06-08 19:01:00,
2013-06-08 15:06:00,62.0,56.5,29.97,NW,315,8.0,13.0,83,0.00,,,0.32,Rainwise IP-100,2013-06-08 19:06:00,
2013-06-08 15:11:00,63.0,56.5,29.96,North,360,9.0,13.0,79,0.00,,,0.32,Rainwise IP-100,2013-06-08 19:11:00,
2013-06-08 15:16:00,63.0,56.5,29.96,NNW,337,8.0,12.0,80,0.00,,,0.32,Rainwise IP-100,2013-06-08 19:16:00,
2013-06-08 15:21:00,63.0,56.5,29.97,NW,315,8.0,15.0,80,0.00,,,0.32,Rainwise IP-100,2013-06-08 19:21:00,
2013-06-08 15:26:00,63.0,57.5,29.97,NW,315,9.0,15.0,82,0.00,,,0.32,Rainwise IP-100,2013-06-08 19:26:00,
2013-06-08 15:31:00,62.0,56.5,29.97,NNW,337,10.0,13.0,82,0.00,,,0.32,Rainwise IP-100,2013-06-08 19:31:00,
2013-06-08 15:36:00,61.0,56.0,29.97,NW,315,8.0,15.0,84,0.00,,,0.32,Rainwise IP-100,2013-06-08 19:36:00,
2013-06-08 15:41:00,60.0,55.0,29.99,NNW,337,11.0,12.0,84,0.00,,,0.32,Rainwise IP-100,2013-06-08 19:41:00,
2013-06-08 15:46:00,60.0,56.0,29.99,NW,315,6.0,15.0,87,0.00,,,0.32,Rainwise IP-100,2013-06-08 19:46:00,
2013-06-08 15:51:00,60.0,56.0,30.00,NW,315,7.0,13.0,87,0.00,,,0.32,Rainwise IP-100,2013-06-08 19:51:00,
2013-06-08 15:56:00,59.0,56.0,30.00,NW,315,7.0,13.0,89,0.00,,,0.32,Rainwise IP-100,2013-06-08 19:56:00,
2013-06-08 16:01:00,59.0,56.0,30.00,NW,315,11.0,14.0,89,0.00,,,0.32,Rainwise IP-100,2013-06-08 20:01:00,
2013-06-08 16:06:00,59.0,56.0,30.00,North,360,3.0,14.0,90,0.00,,,0.32,Rainwise IP-100,2013-06-08 20:06:00,
2013-06-08 16:11:00,59.0,56.5,30.01,North,360,6.0,14.0,91,0.00,,,0.32,Rainwise IP-100,2013-06-08 20:11:00,
2013-06-08 16:16:00,59.0,56.5,30.01,North,360,7.0,12.0,92,0.00,,,0.32,Rainwise IP-100,2013-06-08 20:16:00,
2013-06-08 16:21:00,59.0,56.5,30.01,NNW,337,9.0,13.0,92,0.00,,,0.32,Rainwise IP-100,2013-06-08 20:21:00,
2013-06-08 16:26:00,58.0,56.5,30.01,NW,315,7.0,16.0,93,0.00,,,0.32,Rainwise IP-100,2013-06-08 20:26:00,
2013-06-08 16:31:00,58.0,56.5,30.02,North,360,7.0,13.0,93,0.00,,,0.32,Rainwise IP-100,2013-06-08 20:31:00,
2013-06-08 16:36:00,58.0,56.5,30.02,NW,315,7.0,10.0,94,0.00,,,0.32,Rainwise IP-100,2013-06-08 20:36:00,
2013-06-08 16:41:00,58.0,56.5,30.03,NNW,337,8.0,15.0,94,0.00,,,0.32,Rainwise IP-100,2013-06-08 20:41:00,
2013-06-08 16:46:00,58.0,56.5,30.03,NW,315,10.0,16.0,94,0.00,,,0.32,Rainwise IP-100,2013-06-08 20:46:00,
2013-06-08 16:51:00,58.0,56.5,30.03,NW,315,7.0,12.0,94,0.00,,,0.32,Rainwise IP-100,2013-06-08 20:51:00,
2013-06-08 16:56:00,58.0,56.5,30.03,North,360,7.0,9.0,94,0.00,,,0.32,Rainwise IP-100,2013-06-08 20:56:00,
2013-06-08 17:01:00,58.0,56.5,30.03,NNW,337,4.0,10.0,94,0.00,,,0.32,Rainwise IP-100,2013-06-08 21:01:00,
2013-06-08 17:06:00,58.0,56.5,30.03,NW,315,7.0,11.0,94,0.00,,,0.32,Rainwise IP-100,2013-06-08 21:06:00,
2013-06-08 17:11:00,58.0,56.5,30.04,NW,315,7.0,9.0,94,0.00,,,0.32,Rainwise IP-100,2013-06-08 21:11:00,
2013-06-08 17:16:00,58.0,56.5,30.04,NNW,337,7.0,9.0,94,0.00,,,0.32,Rainwise IP-100,2013-06-08 21:16:00,
2013-06-08 17:21:00,57.0,56.0,30.04,NW,315,11.0,12.0,95,0.00,,,0.32,Rainwise IP-100,2013-06-08 21:21:00,
2013-06-08 17:26:00,57.0,56.0,30.04,NW,315,5.0,12.0,95,0.00,,,0.32,Rainwise IP-100,2013-06-08 21:26:00,
2013-06-08 17:31:00,57.0,56.0,30.04,NW,315,6.0,9.0,96,0.00,,,0.32,Rainwise IP-100,2013-06-08 21:31:00,
2013-06-08 17:36:00,57.0,56.0,30.04,NNW,337,6.0,8.0,95,0.00,,,0.32,Rainwise IP-100,2013-06-08 21:36:00,
2013-06-08 17:41:00,57.0,56.0,30.05,NW,315,6.0,8.0,96,0.00,,,0.32,Rainwise IP-100,2013-06-08 21:41:00,
2013-06-08 17:46:00,58.0,57.0,30.05,West,270,1.0,8.0,95,0.00,,,0.32,Rainwise IP-100,2013-06-08 21:46:00,
2013-06-08 17:51:00,58.0,57.0,30.05,West,270,0.0,4.0,95,0.00,,,0.32,Rainwise IP-100,2013-06-08 21:51:00,
2013-06-08 17:56:00,58.0,57.0,30.05,NNW,337,2.0,6.0,95,0.00,,,0.32,Rainwise IP-100,2013-06-08 21:56:00,
2013-06-08 18:01:00,58.0,57.0,30.05,NNE,22,1.0,4.0,95,0.00,,,0.32,Rainwise IP-100,2013-06-08 22:01:00,
2013-06-08 18:06:00,58.0,57.0,30.05,North,360,2.0,3.0,95,0.00,,,0.32,Rainwise IP-100,2013-06-08 22:06:00,
2013-06-08 18:11:00,58.0,56.5,30.05,North,360,4.0,4.0,93,0.00,,,0.32,Rainwise IP-100,2013-06-08 22:11:00,
2013-06-08 18:16:00,58.0,56.0,30.05,NNW,337,5.0,9.0,92,0.00,,,0.32,Rainwise IP-100,2013-06-08 22:16:00,
2013-06-08 18:21:00,58.0,56.5,30.05,NW,315,3.0,6.0,93,0.00,,,0.32,Rainwise IP-100,2013-06-08 22:21:00,
2013-06-08 18:26:00,58.0,56.5,30.05,North,360,2.0,6.0,93,0.00,,,0.32,Rainwise IP-100,2013-06-08 22:26:00,
2013-06-08 18:31:00,59.0,57.0,30.05,North,360,3.0,4.0,93,0.00,,,0.32,Rainwise IP-100,2013-06-08 22:31:00,
2013-06-08 18:36:00,59.0,57.0,30.05,NNW,337,2.0,4.0,94,0.00,,,0.32,Rainwise IP-100,2013-06-08 22:36:00,
2013-06-08 18:41:00,59.0,57.0,30.06,NE,45,2.0,5.0,94,0.00,,,0.32,Rainwise IP-100,2013-06-08 22:41:00,
2013-06-08 18:46:00,59.0,57.0,30.06,NE,45,3.0,4.0,94,0.00,,,0.32,Rainwise IP-100,2013-06-08 22:46:00,
2013-06-08 18:51:00,59.0,57.0,30.06,ENE,67,2.0,5.0,93,0.00,,,0.32,Rainwise IP-100,2013-06-08 22:51:00,
2013-06-08 18:56:00,59.0,57.0,30.06,North,360,3.0,5.0,93,0.00,,,0.32,Rainwise IP-100,2013-06-08 22:56:00,
2013-06-08 19:01:00,59.0,57.0,30.07,North,360,3.0,3.0,93,0.00,,,0.32,Rainwise IP-100,2013-06-08 23:01:00,
2013-06-08 19:06:00,59.0,57.5,30.07,North,360,0.0,6.0,95,0.00,,,0.32,Rainwise IP-100,2013-06-08 23:06:00,
2013-06-08 19:11:00,59.0,57.0,30.07,NNE,22,1.0,5.0,94,0.00,,,0.32,Rainwise IP-100,2013-06-08 23:11:00,
2013-06-08 19:16:00,59.0,57.0,30.07,North,360,1.0,4.0,93,0.00,,,0.32,Rainwise IP-100,2013-06-08 23:16:00,
2013-06-08 19:21:00,59.0,56.5,30.07,North,360,2.0,6.0,92,0.00,,,0.32,Rainwise IP-100,2013-06-08 23:21:00,
2013-06-08 19:26:00,59.0,56.5,30.07,NNW,337,3.0,6.0,92,0.00,,,0.32,Rainwise IP-100,2013-06-08 23:26:00,
2013-06-08 19:31:00,59.0,56.5,30.07,NE,45,1.0,6.0,91,0.00,,,0.32,Rainwise IP-100,2013-06-08 23:31:00,
2013-06-08 19:36:00,59.0,56.5,30.07,WNW,292,0.0,5.0,91,0.00,,,0.32,Rainwise IP-100,2013-06-08 23:36:00,
2013-06-08 19:41:00,58.0,56.0,30.07,NNW,337,4.0,9.0,92,0.00,,,0.32,Rainwise IP-100,2013-06-08 23:41:00,
2013-06-08 19:46:00,58.0,56.0,30.07,NNW,337,6.0,7.0,92,0.00,,,0.32,Rainwise IP-100,2013-06-08 23:46:00,
2013-06-08 19:51:00,58.0,56.0,30.07,NNW,337,6.0,7.0,92,0.00,,,0.32,Rainwise IP-100,2013-06-08 23:51:00,
2013-06-08 19:56:00,58.0,56.0,30.07,NW,315,6.0,9.0,92,0.00,,,0.32,Rainwise IP-100,2013-06-08 23:56:00,
2013-06-08 20:01:00,58.0,56.0,30.07,North,360,8.0,11.0,92,0.00,,,0.32,Rainwise IP-100,2013-06-09 00:01:00,
2013-06-08 20:06:00,58.0,56.0,30.07,NNW,337,8.0,12.0,91,0.00,,,0.32,Rainwise IP-100,2013-06-09 00:06:00,
2013-06-08 20:11:00,58.0,56.0,30.07,NW,315,3.0,11.0,92,0.00,,,0.32,Rainwise IP-100,2013-06-09 00:11:00,
2013-06-08 20:16:00,58.0,56.0,30.07,NNW,337,6.0,11.0,92,0.00,,,0.32,Rainwise IP-100,2013-06-09 00:16:00,
2013-06-08 20:21:00,58.0,56.0,30.07,NNW,337,8.0,10.0,92,0.00,,,0.32,Rainwise IP-100,2013-06-09 00:21:00,
2013-06-08 20:26:00,58.0,56.0,30.07,WNW,292,3.0,9.0,92,0.00,,,0.32,Rainwise IP-100,2013-06-09 00:26:00,
2013-06-08 20:31:00,58.0,56.0,30.08,NNW,337,8.0,9.0,92,0.00,,,0.32,Rainwise IP-100,2013-06-09 00:31:00,
2013-06-08 20:36:00,58.0,56.0,30.08,NW,315,2.0,10.0,92,0.00,,,0.32,Rainwise IP-100,2013-06-09 00:36:00,
2013-06-08 20:41:00,58.0,56.5,30.08,North,360,3.0,5.0,93,0.00,,,0.32,Rainwise IP-100,2013-06-09 00:41:00,
2013-06-08 20:46:00,57.0,55.0,30.08,NNE,22,0.0,4.0,93,0.00,,,0.32,Rainwise IP-100,2013-06-09 00:46:00,
2013-06-08 20:51:00,57.0,55.0,30.08,NNE,22,0.0,3.0,94,0.00,,,0.32,Rainwise IP-100,2013-06-09 00:51:00,
2013-06-08 20:56:00,57.0,56.0,30.08,NNE,22,0.0,2.0,95,0.00,,,0.32,Rainwise IP-100,2013-06-09 00:56:00,
2013-06-08 21:01:00,57.0,56.0,30.08,NNW,337,0.0,0.0,96,0.00,,,0.32,Rainwise IP-100,2013-06-09 01:01:00,
2013-06-08 21:06:00,57.0,56.0,30.08,ENE,67,0.0,0.0,96,0.00,,,0.32,Rainwise IP-100,2013-06-09 01:06:00,
2013-06-08 21:11:00,57.0,56.5,30.08,ENE,67,0.0,2.0,97,0.00,,,0.32,Rainwise IP-100,2013-06-09 01:11:00,
2013-06-08 21:16:00,57.0,56.0,30.08,ENE,67,0.0,2.0,96,0.00,,,0.32,Rainwise IP-100,2013-06-09 01:16:00,
2013-06-08 21:21:00,57.0,56.0,30.09,ENE,67,0.0,2.0,96,0.00,,,0.32,Rainwise IP-100,2013-06-09 01:21:00,
2013-06-08 21:26:00,57.0,56.0,30.09,ENE,67,0.0,0.0,96,0.00,,,0.32,Rainwise IP-100,2013-06-09 01:26:00,
2013-06-08 21:31:00,57.0,56.0,30.09,ENE,67,0.0,0.0,95,0.00,,,0.32,Rainwise IP-100,2013-06-09 01:31:00,
2013-06-08 21:36:00,57.0,56.0,30.09,ENE,67,0.0,0.0,96,0.00,,,0.32,Rainwise IP-100,2013-06-09 01:36:00,
2013-06-08 21:41:00,57.0,56.0,30.10,NW,315,0.0,4.0,96,0.00,,,0.32,Rainwise IP-100,2013-06-09 01:41:00,
2013-06-08 21:46:00,57.0,56.0,30.10,NW,315,3.0,3.0,96,0.00,,,0.32,Rainwise IP-100,2013-06-09 01:46:00,
2013-06-08 21:51:00,56.0,54.5,30.10,NW,315,0.0,4.0,95,0.00,,,0.32,Rainwise IP-100,2013-06-09 01:51:00,
2013-06-08 21:56:00,56.0,54.5,30.10,North,360,1.0,4.0,95,0.00,,,0.32,Rainwise IP-100,2013-06-09 01:56:00,
2013-06-08 22:01:00,56.0,54.5,30.11,WNW,292,4.0,5.0,95,0.00,,,0.32,Rainwise IP-100,2013-06-09 02:01:00,
2013-06-08 22:06:00,57.0,56.0,30.11,NW,315,1.0,6.0,95,0.00,,,0.32,Rainwise IP-100,2013-06-09 02:06:00,
2013-06-08 22:11:00,57.0,55.0,30.11,North,360,3.0,4.0,94,0.00,,,0.32,Rainwise IP-100,2013-06-09 02:11:00,
2013-06-08 22:16:00,57.0,56.0,30.11,North,360,0.0,3.0,95,0.00,,,0.32,Rainwise IP-100,2013-06-09 02:16:00,
2013-06-08 22:21:00,57.0,55.0,30.11,WNW,292,2.0,3.0,94,0.00,,,0.32,Rainwise IP-100,2013-06-09 02:21:00,
2013-06-08 22:26:00,57.0,55.0,30.11,NW,315,0.0,4.0,93,0.00,,,0.32,Rainwise IP-100,2013-06-09 02:26:00,
2013-06-08 22:31:00,57.0,55.0,30.11,West,270,2.0,4.0,93,0.00,,,0.32,Rainwise IP-100,2013-06-09 02:31:00,
2013-06-08 22:36:00,57.0,55.0,30.11,West,270,0.0,4.0,94,0.00,,,0.32,Rainwise IP-100,2013-06-09 02:36:00,
2013-06-08 22:41:00,57.0,55.0,30.12,NW,315,1.0,2.0,94,0.00,,,0.32,Rainwise IP-100,2013-06-09 02:41:00,
2013-06-08 22:46:00,57.0,55.0,30.12,NNW,337,3.0,6.0,93,0.00,,,0.32,Rainwise IP-100,2013-06-09 02:46:00,
2013-06-08 22:51:00,57.0,55.0,30.12,NW,315,2.0,6.0,93,0.00,,,0.32,Rainwise IP-100,2013-06-09 02:51:00,
2013-06-08 22:56:00,57.0,55.0,30.12,NNW,337,4.0,4.0,93,0.00,,,0.32,Rainwise IP-100,2013-06-09 02:56:00,
2013-06-08 23:01:00,56.0,54.5,30.13,WNW,292,3.0,6.0,95,0.00,,,0.32,Rainwise IP-100,2013-06-09 03:01:00,
2013-06-08 23:06:00,56.0,54.5,30.13,West,270,2.0,5.0,96,0.00,,,0.32,Rainwise IP-100,2013-06-09 03:06:00,
2013-06-08 23:11:00,56.0,54.5,30.13,West,270,0.0,3.0,96,0.00,,,0.32,Rainwise IP-100,2013-06-09 03:11:00,
2013-06-08 23:16:00,56.0,54.5,30.13,NW,315,0.0,1.0,96,0.00,,,0.32,Rainwise IP-100,2013-06-09 03:16:00,
2013-06-08 23:21:00,56.0,54.5,30.14,West,270,1.0,3.0,95,0.00,,,0.32,Rainwise IP-100,2013-06-09 03:21:00,
2013-06-08 23:26:00,56.0,54.0,30.14,NNW,337,3.0,5.0,94,0.00,,,0.32,Rainwise IP-100,2013-06-09 03:26:00,
2013-06-08 23:31:00,57.0,55.0,30.13,North,360,0.0,5.0,94,0.00,,,0.32,Rainwise IP-100,2013-06-09 03:31:00,
2013-06-08 23:36:00,57.0,55.0,30.13,East,90,3.0,4.0,94,0.00,,,0.32,Rainwise IP-100,2013-06-09 03:36:00,
2013-06-08 23:41:00,57.0,54.5,30.13,NE,45,0.0,6.0,92,0.00,,,0.32,Rainwise IP-100,2013-06-09 03:41:00,
2013-06-08 23:46:00,57.0,55.0,30.13,NE,45,0.0,1.0,93,0.00,,,0.32,Rainwise IP-100,2013-06-09 03:46:00,
2013-06-08 23:51:00,57.0,54.5,30.13,NNW,337,2.0,3.0,92,0.00,,,0.32,Rainwise IP-100,2013-06-09 03:51:00,
2013-06-08 23:56:00,57.0,54.5,30.13,NNW,337,3.0,3.0,92,0.00,,,0.32,Rainwise IP-100,2013-06-09 03:56:00,